Home   Weather   Kirkland Lake   Past weeks

Flag for Canada Past Weather in Kirkland Lake, Ontario, Canada — Yesterday and Last 2 Weeks

Now
28 °F

Clear.


Feels Like: 23 °F
Forecast: 17 / 39 °F
Wind: 5 mph from Northeast

Location: Earlton

Current Time: Apr 23, 2017 at 9:55:31 pm

Latest Report: Apr 23, 2017 at 9:00 pm


Visibility: 9 mi

Pressure: 30.22 "Hg

Humidity: 59%

Dew Point: 16 °F

Location of Kirkland LakeLocation

Past Weather in Kirkland Lake — Graph

°F

Kirkland Lake Temperature Yesterday

Maximum temperature yesterday: 55 °F (at 5:00 pm)
Minimum temperature yesterday: 30 °F (at 6:00 am)
Average temperature yesterday: 42 °F

High & Low Weather Summary for the Past Weeks

 TemperatureHumidityPressure
High61 °F (Apr 9, 4:00 pm)100% (Apr 10, 12:06 am)30.53 "Hg (Apr 10, 12:06 am)
Low19 °F (Apr 18, 6:00 am)22% (Apr 14, 4:00 pm)29.67 "Hg (Apr 10, 10:24 am)
Average37 °F79%30.05 "Hg
* Reported Apr 8 8:00 pm — Apr 23 8:00 pm, Kirkland Lake, Weather by CustomWeather, © 2017

Note: Actual official high and low records may vary slightly from our data, if they occured in-between our weather recording intervals... More about our weather records

Advertising

Kirkland Lake Weather History for the Previous 24 Hours

Scroll right to see more
 ConditionsComfort  
Time TempWeatherWind HumidityBarometerVisibility
8:00 pm
Sun, Apr 23
30 °FSunny.9 mph55%30.19 "Hg9 mi
7:00 pm32 °FSunny.10 mph55%30.17 "Hg9 mi
6:00 pm32 °FScattered clouds.10 mph60%30.17 "Hg9 mi
5:00 pm32 °FPartly sunny.9 mph64%30.15 "Hg9 mi
4:00 pm32 °FPartly sunny.13 mph75%30.15 "Hg9 mi
3:13 pm30 °FOvercast.16 mph75%30.15 "Hg9 mi
3:04 pm30 °FMostly cloudy.15 mph75%30.15 "Hg9 mi
2:00 pm30 °FOvercast.16 mph80%30.14 "Hg9 mi
1:40 pm30 °FOvercast.15 mph80%30.13 "Hg9 mi
1:03 pm30 °FIce fog.17 mph86%30.12 "Hg5 mi
12:44 pm30 °FMostly cloudy.16 mph80%30.11 "Hg9 mi
12:39 pm30 °FLight snow. Mostly cloudy.17 mph80%30.11 "Hg9 mi
12:03 pm28 °FLight snow. Mostly cloudy.21 mph86%30.09 "Hg2 mi
11:41 am30 °FLight snow. Partly sunny.16 mph86%30.09 "Hg2 mi
11:00 am32 °FLight snow. Low clouds.16 mph87%30.05 "Hg1 mi
10:30 am32 °FLight snow. Low clouds.16 mph93%30.03 "Hg1 mi
10:00 am32 °FLight snow. Low clouds.16 mph100%30.01 "Hg1 mi
9:00 am39 °FLight rain. Cloudy.24 mph87%29.96 "Hg9 mi
8:00 am43 °FLight rain. Overcast.10 mph76%29.92 "Hg9 mi
7:08 am46 °FLight rain. Cloudy.12 mph53%29.91 "Hg9 mi
6:46 am46 °FMostly cloudy.9 mph50%29.90 "Hg9 mi
6:36 am48 °FLight rain. Mostly cloudy.10 mph46%29.90 "Hg9 mi
6:00 am46 °FPassing clouds.7 mph53%29.90 "Hg9 mi
5:00 am46 °FOvercast.8 mph53%29.90 "Hg9 mi
4:00 am43 °FOvercast.10 mph66%29.91 "Hg9 mi
3:00 am39 °FMostly cloudy.10 mph75%29.93 "Hg9 mi
2:00 am37 °FPassing clouds.9 mph70%29.95 "Hg9 mi
1:00 am36 °FClear.7 mph81%29.96 "Hg9 mi
12:00 am37 °FPassing clouds.7 mph81%29.98 "Hg9 mi
11:00 pm
Sat, Apr 22
39 °FClear.8 mph75%30.00 "Hg9 mi
10:00 pm41 °FClear.7 mph76%30.02 "Hg9 mi
9:00 pm46 °FClear.8 mph66%30.03 "Hg9 mi
Weather by CustomWeather, © 2017

See weather overviewHow to use our weather pages